735  
ASUS44 KOHX 221110  
RWROHX  
MIDDLE TENNESSEE HOURLY WEATHER ROUNDUP  
NATIONAL WEATHER SERVICE NASHVILLE TN  
600 AM CDT SUN OCT 22 2017  
 
NOTE: "FAIR" INDICATES FEW OR NO CLOUDS BELOW 12,000 FEET WITH  
NO SIGNIFICANT WEATHER AND/OR S TO VISIBILITY
.  
 
* THESE REPORTS ARE NOT UNDER NWS QUALITY CONTROL AND MAY NOT  
REPORT WEATHER SUCH AS PRECIPITATION AND FOG.
 
 
 
TNZ005>011-023>034-057-059-062>066-078-080-221200   
..NORTHERN MIDDLE TENNESSEE
 
 
 
CITY SKY/WX TMP DP RH WIND PRES REMARKS
 
CLARKSVILLE CLOUDY 63 55 75 SE8 30.10S  
CROSSVILLE CLOUDY 58 48 69 VRB7 30.24R  
GALLATIN PTCLDY 61 52 72 CALM 30.18R  
DICKSON N/A 64 54 70 S8 30.11R  
LEBANON CLOUDY 57 51 80 CALM 30.15R  
NASHVILLE CLOUDY 65 52 62 SE10 30.14R  
PORTLAND CLEAR 64 52 63 S12G17 30.13R  
SMYRNA CLOUDY 59 53 80 S3 30.16R  
SPARTA MOCLDY 63 52 67 S8 30.19S  
SPRINGFIELD PTCLDY 63 54 72 SE8 30.10S  
WEST NASHVILLE CLEAR 66 52 59 VRB5 30.12R  

 
TNZ056-058-060-061-075>077-079-093>097-221200   
..SOUTHERN MIDDLE TENNESSEE
 
 
 
CITY SKY/WX TMP DP RH WIND PRES REMARKS
 
COLUMBIA PTCLDY 64 55 72 S6 30.12R  
FAYETTEVILLE CLEAR 64 57 77 SE10G16 30.17R  
MURFREESBORO CLOUDY 64 51 62 S10 30.16R  
PULASKI MOCLDY 64 55 72 SE7 30.14S  
SHELBYVILLE CLEAR 64 54 68 SE7 30.16S  
TULLAHOMA CLEAR 63 54 72 SE9 30.19R  
WINCHESTER CLEAR 63 55 77 S10 N/A  

 
 
   
..KEY TO REMARKS
 
 
VSB - VISIBILITY IN MILES  
WCI - WIND CHILL INDEX  
HX - HEAT INDEX  
 
 
 
CLICK HERE TO GO TO PREVIOUS BULLETINS.

The Nexlab TN Page Main Text Page